Weather History for Albemarle, NC

Change the Weather History Date:

Saturday, November 9, 2013

  Actual Average (KHBI) Record (KHBI)
Temperature  
Mean Temperature 42 °F -  
Max Temperature 59 °F 65 °F 82 °F (1986)
Min Temperature 26 °F 42 °F 22 °F (1976)
Degree Days  
Heating Degree Days 22    
Moisture  
Dew Point 30 °F    
Average Humidity 65    
Maximum Humidity 100    
Minimum Humidity 30    
Precipitation  
Precipitation 0.00 in - - ()
Sea Level Pressure  
Sea Level Pressure 30.34 in    
Wind  
Wind Speed 2 mph (SW)    
Max Wind Speed 12 mph    
Max Gust Speed 17 mph    
Visibility 10 miles    
Events      
Averages and records for this station are not official NWS values.
T = Trace of Precipitation, MM = Missing Value Source: NWS Daily Summary

Daily Weather History Graph

Daily Weather History Graph

Search for Another Location

Airport:

Trip Planner

Search our weather history database for the weather conditions in past years. The results will help you decide how hot, cold, wet, or windy it might be!

Date:

Astronomy

Nov. 09, 2013 Rise Set
Actual Time 6:50 AM EST 5:18 PM EST
Civil Twilight 6:23 AM EST 5:45 PM EST
Nautical Twilight 5:52 AM EST 6:15 PM EST
Astronomical Twilight 5:23 AM EST 6:45 PM EST
Moon 12:28 PM EST (11/9) 11:43 PM EST (11/9)
Length of Visible Light 11h 21m
Length of Day
10h 28m
Waxing Crescent, 44% of the Moon is Illuminated
Nov 9
Waxing Crescent
Nov 10
First Quarter
Nov 17
Full
Nov 25
Last Quarter
Dec 2
New

Hourly Weather History & Observations

Time (EST) Temp. Windchill Dew Point Humidity Pressure Visibility Wind Dir Wind Speed Gust Speed Precip Events Conditions
12:15 AM 30.9 °F - 29.8 °F 96% 30.37 in 10.0 mi Calm Calm - N/A   Clear
12:35 AM 30.6 °F - 29.1 °F 94% 30.37 in 10.0 mi Calm Calm - N/A   Clear
12:55 AM 30.2 °F - 28.2 °F 92% 30.37 in 10.0 mi Calm Calm - N/A   Clear
1:15 AM 30.9 °F - 28.8 °F 92% 30.37 in 10.0 mi Calm Calm - N/A   Clear
1:35 AM 29.5 °F - 27.7 °F 93% 30.38 in 10.0 mi Calm Calm - N/A   Clear
1:55 AM 29.8 °F - 28.4 °F 94% 30.38 in 10.0 mi Calm Calm - N/A   Clear
2:15 AM 29.8 °F - 28.2 °F 94% 30.38 in 10.0 mi Calm Calm - N/A   Clear
2:35 AM 30.2 °F - 27.9 °F 91% 30.38 in 10.0 mi Calm Calm - N/A   Clear
2:55 AM 29.3 °F - 28.0 °F 95% 30.38 in 10.0 mi Calm Calm - N/A   Clear
3:15 AM 29.3 °F - 28.0 °F 95% 30.38 in 10.0 mi Calm Calm - N/A   Clear
3:35 AM 28.8 °F - 27.5 °F 95% 30.38 in 10.0 mi Calm Calm - N/A   Clear
3:55 AM 28.4 °F - 27.5 °F 96% 30.38 in 10.0 mi Calm Calm - N/A   Clear
4:15 AM 28.2 °F - 27.7 °F 98% 30.38 in 10.0 mi Calm Calm - N/A   Clear
4:35 AM 27.5 °F - 27.0 °F 98% 30.38 in 10.0 mi Calm Calm - N/A   Clear
4:55 AM 28.2 °F - 27.5 °F 97% 30.38 in 10.0 mi Calm Calm - N/A   Clear
5:15 AM 28.4 °F - 27.0 °F 94% 30.39 in 10.0 mi Calm Calm - N/A   Clear
5:35 AM 28.4 °F - 27.1 °F 95% 30.39 in 10.0 mi Calm Calm - N/A   Clear
5:55 AM 27.9 °F - 27.7 °F 99% 30.40 in 10.0 mi Calm Calm - N/A   Clear
6:15 AM 27.7 °F - 27.0 °F 97% 30.40 in 10.0 mi Calm Calm - N/A   Clear
6:35 AM 27.5 °F - 27.5 °F 100% 30.40 in 10.0 mi Calm Calm - N/A   Clear
6:55 AM 26.4 °F - 26.1 °F 99% 30.41 in 10.0 mi North - - N/A   Clear
7:15 AM 28.0 °F - 27.1 °F 96% 30.42 in 10.0 mi North - - N/A   Clear
7:35 AM 29.5 °F - 28.8 °F 97% 30.42 in 10.0 mi Calm Calm - N/A   Clear
7:55 AM 32.0 °F - 30.7 °F 95% 30.42 in 10.0 mi Calm Calm - N/A   Clear
8:15 AM 35.8 °F - 33.1 °F 90% 30.42 in 10.0 mi Calm Calm - N/A   Clear
8:35 AM 39.7 °F - 34.5 °F 82% 30.42 in 10.0 mi Calm Calm - N/A   Clear
8:55 AM 42.1 °F - 34.3 °F 74% 30.42 in 10.0 mi Calm Calm - N/A   Clear
9:15 AM 45.1 °F - 31.8 °F 60% 30.42 in 10.0 mi Calm Calm - N/A   Clear
9:35 AM 45.9 °F - 31.5 °F 57% 30.42 in 10.0 mi Calm Calm - N/A   Clear
9:55 AM 48.4 °F - 29.8 °F 49% 30.42 in 10.0 mi SE 4.6 mph - N/A   Clear
10:15 AM 49.6 °F - 29.3 °F 46% 30.42 in 10.0 mi Calm Calm - N/A   Clear
10:35 AM 51.1 °F - 30.0 °F 44% 30.41 in 10.0 mi SSW 4.6 mph - N/A   Clear
10:55 AM 52.2 °F - 27.7 °F 39% 30.40 in 10.0 mi South 6.9 mph - N/A   Clear
11:15 AM 53.6 °F - 29.1 °F 39% 30.39 in 10.0 mi SSW 4.6 mph - N/A   Clear
11:35 AM 54.3 °F - 26.2 °F 34% 30.38 in 10.0 mi South 8.1 mph - N/A   Clear
11:55 AM 55.4 °F - 27.1 °F 34% 30.37 in 10.0 mi South 6.9 mph - N/A   Clear
12:15 PM 55.0 °F - 26.4 °F 33% 30.36 in 10.0 mi SW 10.4 mph - N/A   Clear
12:35 PM 56.5 °F - 27.5 °F 33% 30.35 in 10.0 mi SW 6.9 mph - N/A   Clear
12:55 PM 55.8 °F - 27.1 °F 33% 30.34 in 10.0 mi WSW 9.2 mph - N/A   Clear
1:15 PM 56.8 °F - 27.5 °F 33% 30.33 in 10.0 mi SW 10.4 mph - N/A   Clear
1:35 PM 58.6 °F - 28.0 °F 31% 30.32 in 10.0 mi WSW 6.9 mph - N/A   Clear
1:55 PM 58.3 °F - 27.5 °F 31% 30.31 in 10.0 mi WSW 9.2 mph - N/A   Clear
2:15 PM 58.6 °F - 27.0 °F 30% 30.30 in 10.0 mi South 9.2 mph 17.3 mph N/A   Clear
2:35 PM 59.4 °F - 28.0 °F 30% 30.30 in 10.0 mi WSW 10.4 mph - N/A   Clear
2:55 PM 58.6 °F - 28.4 °F 32% 30.29 in 10.0 mi SW 11.5 mph - N/A   Clear
3:15 PM 58.5 °F - 27.9 °F 31% 30.29 in 10.0 mi WSW 8.1 mph - N/A   Clear
3:35 PM 58.3 °F - 27.7 °F 31% 30.30 in 10.0 mi WSW 8.1 mph - N/A   Clear
3:55 PM 57.9 °F - 28.9 °F 33% 30.30 in 10.0 mi SW 6.9 mph - N/A   Clear
4:15 PM 57.2 °F - 28.2 °F 33% 30.30 in 10.0 mi WSW 5.8 mph - N/A   Clear
4:35 PM 55.9 °F - 28.6 °F 35% 30.30 in 10.0 mi SW 4.6 mph - N/A   Clear
4:55 PM 55.2 °F - 29.1 °F 37% 30.30 in 10.0 mi SW 3.5 mph - N/A   Clear
5:15 PM 54.1 °F - 29.8 °F 39% 30.30 in 10.0 mi SSW 3.5 mph - N/A   Clear
5:35 PM 54.0 °F - 30.6 °F 41% 30.30 in 10.0 mi Calm Calm - N/A   Clear
5:55 PM 53.1 °F - 32.0 °F 45% 30.30 in 10.0 mi Calm Calm - N/A   Clear
6:15 PM 52.2 °F - 32.2 °F 47% 30.28 in 10.0 mi Calm Calm - N/A   Clear
6:35 PM 50.5 °F - 34.2 °F 53% 30.27 in 10.0 mi Calm Calm - N/A   Clear
6:55 PM 49.1 °F - 34.7 °F 58% 30.28 in 10.0 mi Calm Calm - N/A   Clear
7:15 PM 48.6 °F - 35.1 °F 60% 30.28 in 10.0 mi Calm Calm - N/A   Clear
7:35 PM 48.2 °F - 37.8 °F 67% 30.27 in 10.0 mi Calm Calm - N/A   Clear
7:55 PM 48.4 °F - 37.6 °F 66% 30.26 in 10.0 mi Calm Calm - N/A   Clear
8:15 PM 48.9 °F - 36.0 °F 61% 30.26 in 10.0 mi SW 3.5 mph - N/A   Clear
8:35 PM 50.9 °F - 33.8 °F 52% 30.25 in 10.0 mi SW 4.6 mph - N/A   Clear
9:35 PM 49.6 °F - 34.3 °F 56% 30.26 in 10.0 mi SW 5.8 mph - N/A   Clear
9:55 PM 49.1 °F - 34.2 °F 56% 30.25 in 10.0 mi Calm Calm - N/A   Clear
10:15 PM 46.8 °F - 34.7 °F 63% 30.25 in 10.0 mi Calm Calm - N/A   Clear
10:35 PM 45.1 °F - 34.9 °F 67% 30.25 in 10.0 mi Calm Calm - N/A   Clear
10:55 PM 43.7 °F - 35.1 °F 72% 30.25 in 10.0 mi Calm Calm - N/A   Clear
11:15 PM 42.1 °F 40.2 °F 35.1 °F 76% 30.25 in 10.0 mi SW 3.5 mph - N/A   Clear
11:35 PM 43.5 °F - 35.1 °F 72% 30.25 in 10.0 mi Calm Calm - N/A   Clear
11:55 PM 43.7 °F - 34.9 °F 71% 30.25 in 10.0 mi Calm Calm - N/A   Clear